When you browse on this site, cookies collect data to enhance your experience and personalize the content and advertising you see.
Visit our Privacy Policy to learn more. By continuing to use the site, you agree to this use of cookies and data.
EN

Hourly Weather Gogolow

Today, 23 September, Wednesday

Time Temperature Precipitation Wind Pressure Humidity
00:00 +14°C° 0 mm 2 mps 736 mmHg 63%
01:00 +14°C° 0 mm 2 mps 736 mmHg 65%
02:00 +14°C° 0 mm 2 mps 736 mmHg 65%
03:00 +14°C° 0 mm 2 mps 736 mmHg 66%
04:00 +13°C° 0 mm 2 mps 736 mmHg 67%
05:00 +14°C° 0 mm 2 mps 736 mmHg 66%
06:00 +14°C° 0 mm 3 mps 735 mmHg 65%
07:00 +17°C° 0 mm 3 mps 735 mmHg 62%
08:00 +19°C° 0 mm 4 mps 735 mmHg 56%
09:00 +21°C° 0 mm 5 mps 735 mmHg 51%
10:00 +23°C° 0 mm 6 mps 735 mmHg 46%
11:00 +24°C° 0 mm 6 mps 735 mmHg 45%
12:00 +26°C° 0 mm 6 mps 735 mmHg 43%
13:00 +27°C° 0 mm 6 mps 735 mmHg 42%
14:00 +26°C° 0 mm 5 mps 734 mmHg 46%
15:00 +25°C° 0 mm 4 mps 734 mmHg 49%
16:00 +25°C° 0 mm 3 mps 733 mmHg 53%
17:00 +22°C° 0 mm 3 mps 733 mmHg 57%
18:00 +20°C° 0 mm 3 mps 733 mmHg 60%
19:00 +18°C° 0 mm 3 mps 733 mmHg 64%
20:00 +18°C° 0 mm 3 mps 733 mmHg 66%
21:00 +17°C° 0 mm 2 mps 733 mmHg 67%
22:00 +17°C° 0 mm 2 mps 733 mmHg 68%
23:00 +16°C° 0 mm 2 mps 733 mmHg 70%

Tomorrow, 24 September, Thursday

Time Temperature Precipitation Wind Pressure Humidity
00:00 +16°C° 0 mm 2 mps 733 mmHg 71%
01:00 +16°C° 0 mm 2 mps 733 mmHg 72%
02:00 +15°C° 0 mm 2 mps 732 mmHg 73%
03:00 +15°C° 0 mm 2 mps 732 mmHg 73%
04:00 +15°C° 0 mm 2 mps 732 mmHg 74%
05:00 +16°C° 0 mm 2 mps 732 mmHg 73%
06:00 +17°C° 0 mm 3 mps 732 mmHg 72%
07:00 +17°C° 0 mm 3 mps 732 mmHg 72%
08:00 +19°C° 0 mm 4 mps 733 mmHg 66%
09:00 +21°C° 0 mm 4 mps 733 mmHg 61%
10:00 +23°C° 0 mm 4 mps 733 mmHg 55%
11:00 +25°C° 0.1 mm 4 mps 733 mmHg 53%
12:00 +25°C° 0.1 mm 3 mps 733 mmHg 51%
13:00 +26°C° 0.1 mm 3 mps 733 mmHg 49%
14:00 +26°C° 0.5 mm 3 mps 733 mmHg 53%
15:00 +25°C° 0.5 mm 2 mps 733 mmHg 57%
16:00 +24°C° 0.5 mm 2 mps 733 mmHg 62%
17:00 +23°C° 0.3 mm 2 mps 733 mmHg 67%
18:00 +20°C° 0.3 mm 2 mps 733 mmHg 73%
19:00 +18°C° 0.3 mm 2 mps 733 mmHg 79%
20:00 +18°C° 0.1 mm 2 mps 733 mmHg 81%
21:00 +18°C° 0.1 mm 1 mps 733 mmHg 83%
22:00 +16°C° 0.1 mm 1 mps 733 mmHg 85%
23:00 +16°C° 0 mm 1 mps 733 mmHg 86%

Day after tomorrow, 25 September, Friday

Time Temperature Precipitation Wind Pressure Humidity
00:00 +16°C° 0 mm 1 mps 732 mmHg 87%
01:00 +15°C° 0 mm 1 mps 732 mmHg 88%
02:00 +15°C° 0 mm 2 mps 731 mmHg 89%
03:00 +15°C° 0 mm 2 mps 731 mmHg 90%
04:00 +15°C° 0 mm 2 mps 730 mmHg 91%
05:00 +16°C° 0 mm 3 mps 730 mmHg 88%
06:00 +15°C° 0 mm 4 mps 730 mmHg 84%
07:00 +16°C° 0 mm 5 mps 729 mmHg 80%
08:00 +19°C° 0 mm 6 mps 729 mmHg 73%
09:00 +21°C° 0 mm 7 mps 729 mmHg 67%
10:00 +22°C° 0 mm 8 mps 729 mmHg 60%
11:00 +22°C° 0 mm 7 mps 728 mmHg 59%
12:00 +22°C° 0 mm 7 mps 728 mmHg 58%
13:00 +23°C° 0 mm 6 mps 727 mmHg 57%
14:00 +22°C° 0.1 mm 5 mps 727 mmHg 61%
15:00 +21°C° 0.1 mm 4 mps 727 mmHg 64%
16:00 +21°C° 0.1 mm 4 mps 726 mmHg 68%
17:00 +20°C° 0 mm 3 mps 726 mmHg 72%
18:00 +19°C° 0 mm 3 mps 726 mmHg 76%
19:00 +18°C° 0 mm 2 mps 726 mmHg 80%
20:00 +17°C° 0 mm 2 mps 726 mmHg 83%
21:00 +16°C° 0 mm 1 mps 725 mmHg 86%
22:00 +15°C° 0 mm 1 mps 725 mmHg 90%
23:00 +15°C° 0.1 mm 1 mps 725 mmHg 90%

26 September, Saturday

Time Temperature Precipitation Wind Pressure Humidity
00:00 +15°C° 0.1 mm 1 mps 725 mmHg 91%
01:00 +15°C° 0.1 mm 1 mps 724 mmHg 92%
02:00 +15°C° 0 mm 1 mps 724 mmHg 93%
03:00 +15°C° 0 mm 1 mps 723 mmHg 94%
04:00 +14°C° 0 mm 1 mps 722 mmHg 95%
05:00 +15°C° 0 mm 1 mps 722 mmHg 93%
06:00 +16°C° 0 mm 2 mps 722 mmHg 90%
07:00 +17°C° 0 mm 2 mps 721 mmHg 88%
08:00 +17°C° 0.2 mm 3 mps 721 mmHg 86%
09:00 +18°C° 0.2 mm 4 mps 721 mmHg 84%
10:00 +19°C° 0.2 mm 5 mps 721 mmHg 81%
11:00 +19°C° 0.1 mm 4 mps 721 mmHg 79%
12:00 +19°C° 0.1 mm 4 mps 721 mmHg 76%
13:00 +20°C° 0.1 mm 3 mps 721 mmHg 74%
14:00 +17°C° 1.4 mm 4 mps 721 mmHg 80%
15:00 +14°C° 1.4 mm 4 mps 721 mmHg 87%
16:00 +10°C° 1.4 mm 5 mps 721 mmHg 93%
17:00 +10°C° 3.6 mm 5 mps 721 mmHg 94%
18:00 +10°C° 3.6 mm 5 mps 721 mmHg 95%
19:00 +9°C° 3.6 mm 5 mps 721 mmHg 95%
20:00 +9°C° 2.1 mm 5 mps 721 mmHg 95%
21:00 +9°C° 2.1 mm 5 mps 721 mmHg 94%
22:00 +9°C° 2.1 mm 5 mps 721 mmHg 94%
23:00 +9°C° 1 mm 5 mps 721 mmHg 94%

27 September, Sunday

Time Temperature Precipitation Wind Pressure Humidity
00:00 +9°C° 1 mm 5 mps 721 mmHg 93%
01:00 +10°C° 1 mm 4 mps 721 mmHg 93%
02:00 +10°C° 0.3 mm 4 mps 722 mmHg 93%
03:00 +8°C° 0.3 mm 4 mps 722 mmHg 92%
04:00 +8°C° 0.3 mm 4 mps 722 mmHg 92%
05:00 +8°C° 0.6 mm 4 mps 723 mmHg 92%
06:00 +8°C° 0.6 mm 4 mps 723 mmHg 92%
07:00 +8°C° 0.6 mm 4 mps 723 mmHg 91%
08:00 +8°C° 0.5 mm 4 mps 724 mmHg 91%
09:00 +8°C° 0.5 mm 4 mps 724 mmHg 90%
10:00 +8°C° 0.5 mm 4 mps 725 mmHg 90%
11:00 +8°C° 0.4 mm 5 mps 726 mmHg 87%
12:00 +8°C° 0.4 mm 5 mps 726 mmHg 84%
13:00 +8°C° 0.4 mm 5 mps 727 mmHg 81%
14:00 +8°C° 0.1 mm 5 mps 727 mmHg 80%
15:00 +8°C° 0.1 mm 5 mps 728 mmHg 78%
16:00 +8°C° 0.1 mm 4 mps 729 mmHg 76%
17:00 +8°C° 0 mm 3 mps 729 mmHg 79%
18:00 +7°C° 0 mm 2 mps 730 mmHg 81%
19:00 +8°C° 0 mm 1 mps 731 mmHg 84%
20:00 +8°C° 0 mm 1 mps 731 mmHg 83%
21:00 +7°C° 0 mm 1 mps 732 mmHg 83%
22:00 +7°C° 0 mm 1 mps 732 mmHg 83%
23:00 +7°C° 0 mm 1 mps 732 mmHg 84%

28 September, Monday

Time Temperature Precipitation Wind Pressure Humidity
00:00 +6°C° 0 mm 1 mps 732 mmHg 86%
01:00 +6°C° 0 mm 1 mps 733 mmHg 87%
02:00 +6°C° 0 mm 1 mps 733 mmHg 87%
03:00 +5°C° 0 mm 1 mps 733 mmHg 88%
04:00 +5°C° 0 mm 1 mps 733 mmHg 88%
05:00 +6°C° 0 mm 1 mps 733 mmHg 85%
06:00 +6°C° 0 mm 1 mps 733 mmHg 83%
07:00 +7°C° 0 mm 1 mps 733 mmHg 80%
08:00 +8°C° 0 mm 2 mps 733 mmHg 74%
09:00 +9°C° 0 mm 2 mps 733 mmHg 69%
10:00 +12°C° 0 mm 2 mps 733 mmHg 63%
11:00 +12°C° 0 mm 2 mps 733 mmHg 62%
12:00 +13°C° 0 mm 2 mps 733 mmHg 60%
13:00 +13°C° 0 mm 2 mps 732 mmHg 59%
14:00 +13°C° 0.1 mm 2 mps 732 mmHg 62%
15:00 +13°C° 0.1 mm 2 mps 732 mmHg 65%
16:00 +13°C° 0.1 mm 2 mps 732 mmHg 68%
17:00 +10°C° 0 mm 2 mps 732 mmHg 71%
18:00 +9°C° 0 mm 2 mps 732 mmHg 75%
19:00 +7°C° 0 mm 2 mps 733 mmHg 79%
20:00 +7°C° 0 mm 2 mps 733 mmHg 80%
21:00 +6°C° 0 mm 2 mps 733 mmHg 81%
22:00 +6°C° 0 mm 2 mps 733 mmHg 82%
23:00 +6°C° 0 mm 2 mps 733 mmHg 83%
Show more